Location: Boiro
(42.6475°N, 8.8834°W)
Time: 02:51:44
(UTC+01:00)

Vanguard 1 Rocket - Pass Details

Date: 14 December 2021
Orbit: 651 x 4224 km, 34.3° (Epoch: 21 January)

Event Time Altitude Azimuth Distance (km) Brightness Sun altitude
Rises 00:07:26 0° 202° (SSW) 3,108 - -64.1°
Reaches altitude 10° 00:10:20 10° 180° (S) 2,408 - -64.5°
Maximum altitude 00:13:50 17° 140° (SE) 2,297 - -65.0°
Drops below altitude 10° 00:18:24 10° 103° (ESE) 3,309 - -65.5°
Sets 00:23:30 0° 86° (E) 4,958 - -66.2°
